Flag for Portugal Weather past 2 weeks in Faro, Portugal

72 °F

Scattered clouds.

Feels Like: 74 °F
Forecast: 63 / 72 °F
Wind: 8 mph from South

Location: Faro / Aeroporto

Current Time: Oct 13, 2015 at 2:01:45 PM

Latest Report: Oct 13, 2015 at 1:30 PM

Visibility: N/A

Pressure: 29.86 "Hg

Humidity: 73%

Dew point: 63 °F

Location of FaroLocation

Historic Weather in Faro — Graph


Faro temperature yesterday

Maximum temperature yesterday: 72 °F (at 12:00 PM)
Minimum temperature yesterday: 66 °F (at 12:00 AM)
Average temperature yesterday: 68 °F

Past Weeks' High & Low Weather Summary

High79 °F (Sep 28, 1:30 PM)100% (Oct 6, 6:30 AM)30.18 "Hg (Oct 6, 6:30 AM)
Low57 °F (Oct 8, 5:30 AM)38% (Oct 7, 3:00 PM)29.74 "Hg (Oct 10, 3:30 PM)
Average69 °F78%29.97 "Hg
* Reported Sep 28 12:00 Noon — Oct 13 12:30 PM, Faro, Weather by CustomWeather, © 2015

Note: Actual official high and low records may vary slightly from our data, if they occured in-between our weather recording intervals... More about our weather records


Faro weather history for previous 24 hours

Time TempWeatherWind HumidityBarometerVisibility
12:30 PM
Tue, Oct 13
70 °FPartly sunny.7 mph83%29.86 "HgN/A
12:00 PM70 °FPartly sunny.7 mph83%29.86 "HgN/A
11:30 AM70 °FScattered clouds.6 mph83%29.86 "HgN/A
11:00 AM70 °FScattered clouds.3 mph83%29.86 "HgN/A
10:30 AM68 °FScattered clouds.3 mph88%29.86 "HgN/A
10:00 AM66 °FPartly sunny.6 mph94%29.86 "HgN/A
9:30 AM66 °FScattered clouds.5 mph94%29.83 "HgN/A
9:00 AM66 °FScattered clouds.5 mph94%29.83 "HgN/A
8:30 AM64 °FPassing clouds.No wind100%29.83 "HgN/A
8:00 AM64 °FPassing clouds.3 mph100%29.83 "HgN/A
7:30 AM64 °FPartly cloudy.2 mph100%29.83 "HgN/A
7:00 AM64 °FPassing clouds.2 mph94%29.80 "HgN/A
6:30 AM64 °FPassing clouds.5 mph94%29.80 "HgN/A
6:00 AM64 °FPassing clouds.3 mph94%29.80 "HgN/A
5:30 AM64 °FPassing clouds.5 mph94%29.80 "HgN/A
5:00 AM64 °FPassing clouds.9 mph94%29.80 "HgN/A
4:30 AM66 °FPartly cloudy.8 mph94%29.80 "HgN/A
4:00 AM66 °FPartly cloudy.9 mph94%29.80 "HgN/A
3:30 AM64 °FPartly cloudy.6 mph100%29.80 "HgN/A
3:00 AM64 °FPartly cloudy.5 mph94%29.80 "HgN/A
2:30 AM64 °FPassing clouds.6 mph94%29.80 "HgN/A
2:00 AM64 °FPassing clouds.8 mph94%29.83 "HgN/A
1:30 AM64 °FLight rain. Partly cloudy.8 mph94%29.83 "HgN/A
1:00 AM66 °FPassing clouds.6 mph88%29.83 "HgN/A
12:30 AM66 °FPassing clouds.7 mph88%29.83 "HgN/A
12:00 AM66 °FPassing clouds.8 mph94%29.83 "HgN/A
11:30 PM
Mon, Oct 12
66 °FPartly cloudy.3 mph88%29.83 "HgN/A
11:00 PM66 °FPassing clouds.5 mph88%29.83 "HgN/A
10:30 PM66 °FPassing clouds.7 mph88%29.83 "HgN/A
10:00 PM66 °FMild.12 mph88%29.83 "HgN/A
9:30 PM66 °FPassing clouds.8 mph88%29.83 "HgN/A
9:00 PM66 °FPassing clouds.8 mph94%29.83 "HgN/A
8:30 PM66 °FPassing clouds.7 mph94%29.83 "HgN/A
8:00 PM66 °FPassing clouds.7 mph94%29.83 "HgN/A
7:30 PM68 °FPassing clouds.7 mph88%29.83 "HgN/A
7:00 PM68 °FPassing clouds.8 mph83%29.83 "HgN/A
6:30 PM68 °FPassing clouds.10 mph88%29.80 "HgN/A
6:00 PM68 °FPassing clouds.9 mph83%29.80 "HgN/A
5:30 PM70 °FPassing clouds.10 mph83%29.80 "HgN/A
5:00 PM70 °FPassing clouds.10 mph83%29.80 "HgN/A
4:30 PM70 °FPassing clouds.12 mph83%29.80 "HgN/A
4:00 PM70 °FPassing clouds.14 mph83%29.80 "HgN/A
3:30 PM70 °FPassing clouds.14 mph83%29.80 "HgN/A
3:00 PM70 °FPassing clouds.16 mph83%29.80 "HgN/A
2:30 PM70 °FPassing clouds.14 mph83%29.80 "HgN/A
2:00 PM70 °FPassing clouds.13 mph83%29.80 "HgN/A
Weather by CustomWeather, © 2015

See weather overviewHow to use our weather pages